Year,Month,Day,Hour,Minute,Value (Times are PST for temperature in C)
2019,08,17,00,00,17.40
2019,08,17,00,01,17.40
2019,08,17,00,02,17.40
2019,08,17,00,03,17.40
2019,08,17,00,04,17.30
2019,08,17,00,05,17.30
2019,08,17,00,06,17.30
2019,08,17,00,07,17.30
2019,08,17,00,08,17.20
2019,08,17,00,09,17.20
2019,08,17,00,10,17.20
2019,08,17,00,11,17.20
2019,08,17,00,12,17.20
2019,08,17,00,13,17.20
2019,08,17,00,14,17.20
2019,08,17,00,15,17.20
2019,08,17,00,16,17.10
2019,08,17,00,17,17.20
2019,08,17,00,18,17.10
2019,08,17,00,19,17.10
2019,08,17,00,20,17.10
2019,08,17,00,21,17.10
2019,08,17,00,22,17.10
2019,08,17,00,23,17.10
2019,08,17,00,24,17.10
2019,08,17,00,25,17.10
2019,08,17,00,26,17.10
2019,08,17,00,27,17.10
2019,08,17,00,28,17.10
2019,08,17,00,29,17.10
2019,08,17,00,30,17.10
2019,08,17,00,31,17.10
2019,08,17,00,32,17.10
2019,08,17,00,33,17.10
2019,08,17,00,34,17.00
2019,08,17,00,35,17.00
2019,08,17,00,36,17.00
2019,08,17,00,37,17.00
2019,08,17,00,38,17.00
2019,08,17,00,39,17.00
2019,08,17,00,40,16.90
2019,08,17,00,41,16.90
2019,08,17,00,42,16.90
2019,08,17,00,43,16.90
2019,08,17,00,44,16.90
2019,08,17,00,45,16.90
2019,08,17,00,46,16.90
2019,08,17,00,47,16.90
2019,08,17,00,48,16.90
2019,08,17,00,49,16.90
2019,08,17,00,50,16.90
2019,08,17,00,51,16.90
2019,08,17,00,52,16.90
2019,08,17,00,53,16.90
2019,08,17,00,54,16.90
2019,08,17,00,55,16.90
2019,08,17,00,56,16.90
2019,08,17,00,57,16.90
2019,08,17,00,58,16.90
2019,08,17,00,59,16.90
2019,08,17,01,00,16.80
2019,08,17,01,01,16.80
2019,08,17,01,02,16.80
2019,08,17,01,03,16.80
2019,08,17,01,04,16.80
2019,08,17,01,05,16.80
2019,08,17,01,06,16.70
2019,08,17,01,07,16.70
2019,08,17,01,08,16.70
2019,08,17,01,09,16.70
2019,08,17,01,10,16.70
2019,08,17,01,11,16.70
2019,08,17,01,12,16.70
2019,08,17,01,13,16.70
2019,08,17,01,14,16.70
2019,08,17,01,15,16.60
2019,08,17,01,16,16.60
2019,08,17,01,17,16.60
2019,08,17,01,18,16.60
2019,08,17,01,19,16.60
2019,08,17,01,20,16.60
2019,08,17,01,21,16.60
2019,08,17,01,22,16.60
2019,08,17,01,23,16.60
2019,08,17,01,24,16.60
2019,08,17,01,25,16.60
2019,08,17,01,26,16.60
2019,08,17,01,27,16.60
2019,08,17,01,28,16.50
2019,08,17,01,29,16.50
2019,08,17,01,30,16.50
2019,08,17,01,31,16.50
2019,08,17,01,32,16.40
2019,08,17,01,33,16.40
2019,08,17,01,34,16.40
2019,08,17,01,35,16.40
2019,08,17,01,36,16.40
2019,08,17,01,37,16.40
2019,08,17,01,38,16.40
2019,08,17,01,39,16.40
2019,08,17,01,40,16.40
2019,08,17,01,41,16.30
2019,08,17,01,42,16.30
2019,08,17,01,43,16.30
2019,08,17,01,44,16.30
2019,08,17,01,45,16.30
2019,08,17,01,46,16.30
2019,08,17,01,47,16.30
2019,08,17,01,48,16.30
2019,08,17,01,49,16.30
2019,08,17,01,50,16.20
2019,08,17,01,51,16.20
2019,08,17,01,52,16.20
2019,08,17,01,53,16.20
2019,08,17,01,54,16.20
2019,08,17,01,55,16.20
2019,08,17,01,56,16.20
2019,08,17,01,57,16.20
2019,08,17,01,58,16.20
2019,08,17,01,59,16.20
2019,08,17,02,00,16.20
2019,08,17,02,01,16.20
2019,08,17,02,02,16.20
2019,08,17,02,03,16.20
2019,08,17,02,04,16.20
2019,08,17,02,05,16.10
2019,08,17,02,06,16.10
2019,08,17,02,07,16.10
2019,08,17,02,08,16.10
2019,08,17,02,09,16.10
2019,08,17,02,10,16.10
2019,08,17,02,11,16.10
2019,08,17,02,12,16.10
2019,08,17,02,13,16.10
2019,08,17,02,14,16.10
2019,08,17,02,15,16.00
2019,08,17,02,16,16.00
2019,08,17,02,17,16.00
2019,08,17,02,18,16.00
2019,08,17,02,19,16.00
2019,08,17,02,20,15.90
2019,08,17,02,21,15.90
2019,08,17,02,22,15.90
2019,08,17,02,23,15.90
2019,08,17,02,24,15.90
2019,08,17,02,25,15.90
2019,08,17,02,26,15.90
2019,08,17,02,27,15.90
2019,08,17,02,28,15.90
2019,08,17,02,29,15.90
2019,08,17,02,30,15.90
2019,08,17,02,31,15.90
2019,08,17,02,32,15.90
2019,08,17,02,33,15.90
2019,08,17,02,34,15.90
2019,08,17,02,35,15.90
2019,08,17,02,36,15.90
2019,08,17,02,37,15.90
2019,08,17,02,38,15.90
2019,08,17,02,39,15.80
2019,08,17,02,40,15.80
2019,08,17,02,41,15.80
2019,08,17,02,42,15.80
2019,08,17,02,43,15.80
2019,08,17,02,44,15.80
2019,08,17,02,45,15.80
2019,08,17,02,46,15.80
2019,08,17,02,47,15.80
2019,08,17,02,48,15.80
2019,08,17,02,49,15.80
2019,08,17,02,50,15.80
2019,08,17,02,51,15.80
2019,08,17,02,52,15.80
2019,08,17,02,53,15.80
2019,08,17,02,54,15.80
2019,08,17,02,55,15.80
2019,08,17,02,56,15.80
2019,08,17,02,57,15.80
2019,08,17,02,58,15.80
2019,08,17,02,59,15.80
2019,08,17,03,00,15.80
2019,08,17,03,01,15.80
2019,08,17,03,02,15.80
2019,08,17,03,03,15.80
2019,08,17,03,04,15.80
2019,08,17,03,05,15.80
2019,08,17,03,06,15.80
2019,08,17,03,07,15.80
2019,08,17,03,08,15.80
2019,08,17,03,09,15.80
2019,08,17,03,10,15.80
2019,08,17,03,11,15.80
2019,08,17,03,12,15.80
2019,08,17,03,13,15.80
2019,08,17,03,14,15.80
2019,08,17,03,15,15.80
2019,08,17,03,16,15.80
2019,08,17,03,17,15.80
2019,08,17,03,18,15.80
2019,08,17,03,19,15.80
2019,08,17,03,20,15.80
2019,08,17,03,21,15.80
2019,08,17,03,22,15.80
2019,08,17,03,23,15.80
2019,08,17,03,24,15.80
2019,08,17,03,25,15.80
2019,08,17,03,26,15.80
2019,08,17,03,27,15.80
2019,08,17,03,28,15.80
2019,08,17,03,29,15.80
2019,08,17,03,30,15.80
2019,08,17,03,31,15.80
2019,08,17,03,32,15.80
2019,08,17,03,33,15.80
2019,08,17,03,34,15.80
2019,08,17,03,35,15.80
2019,08,17,03,36,15.80
2019,08,17,03,37,15.80
2019,08,17,03,38,15.90
2019,08,17,03,39,15.90
2019,08,17,03,40,15.90
2019,08,17,03,41,15.90
2019,08,17,03,42,15.90
2019,08,17,03,43,15.90
2019,08,17,03,44,15.80
2019,08,17,03,45,15.80
2019,08,17,03,46,15.80
2019,08,17,03,47,15.80
2019,08,17,03,48,15.80
2019,08,17,03,49,15.80
2019,08,17,03,50,15.80
2019,08,17,03,51,15.80
2019,08,17,03,52,15.80
2019,08,17,03,53,15.90
2019,08,17,03,54,15.90
2019,08,17,03,55,15.90
2019,08,17,03,56,15.90
2019,08,17,03,57,15.90
2019,08,17,03,58,15.90
2019,08,17,03,59,15.90
2019,08,17,04,00,15.90
2019,08,17,04,01,15.90
2019,08,17,04,02,15.90
2019,08,17,04,03,15.90
2019,08,17,04,04,15.90
2019,08,17,04,05,15.90
2019,08,17,04,06,15.80
2019,08,17,04,07,15.80
2019,08,17,04,08,15.70
2019,08,17,04,09,15.70
2019,08,17,04,10,15.60
2019,08,17,04,11,15.60
2019,08,17,04,12,15.50
2019,08,17,04,13,15.50
2019,08,17,04,14,15.40
2019,08,17,04,15,15.40
2019,08,17,04,16,15.40
2019,08,17,04,17,15.40
2019,08,17,04,18,15.40
2019,08,17,04,19,15.30
2019,08,17,04,20,15.30
2019,08,17,04,21,15.30
2019,08,17,04,22,15.30
2019,08,17,04,23,15.30
2019,08,17,04,24,15.30
2019,08,17,04,25,15.30
2019,08,17,04,26,15.30
2019,08,17,04,27,15.30
2019,08,17,04,28,15.30
2019,08,17,04,29,15.30
2019,08,17,04,30,15.30
2019,08,17,04,31,15.30
2019,08,17,04,32,15.30
2019,08,17,04,33,15.30
2019,08,17,04,34,15.20
2019,08,17,04,35,15.20
2019,08,17,04,36,15.20
2019,08,17,04,37,15.20
2019,08,17,04,38,15.20
2019,08,17,04,39,15.20
2019,08,17,04,40,15.20
2019,08,17,04,41,15.20
2019,08,17,04,42,15.20
2019,08,17,04,43,15.20
2019,08,17,04,44,15.10
2019,08,17,04,45,15.10
2019,08,17,04,46,15.10
2019,08,17,04,47,15.10
2019,08,17,04,48,15.10
2019,08,17,04,49,15.10
2019,08,17,04,50,15.10
2019,08,17,04,51,15.10
2019,08,17,04,52,15.10
2019,08,17,04,53,15.10
2019,08,17,04,54,15.00
2019,08,17,04,55,15.00
2019,08,17,04,56,14.90
2019,08,17,04,57,14.90
2019,08,17,04,58,14.80
2019,08,17,04,59,14.80
2019,08,17,05,00,14.70
2019,08,17,05,01,14.70
2019,08,17,05,02,14.60
2019,08,17,05,03,14.60
2019,08,17,05,04,14.60
2019,08,17,05,05,14.50
2019,08,17,05,06,14.50
2019,08,17,05,07,14.50
2019,08,17,05,08,14.40
2019,08,17,05,09,14.40
2019,08,17,05,10,14.40
2019,08,17,05,11,14.40
2019,08,17,05,12,14.40
2019,08,17,05,13,14.40
2019,08,17,05,14,14.40
2019,08,17,05,15,14.40
2019,08,17,05,16,14.40
2019,08,17,05,17,14.30
2019,08,17,05,18,14.30
2019,08,17,05,19,14.30
2019,08,17,05,20,14.30
2019,08,17,05,21,14.30
2019,08,17,05,22,14.30
2019,08,17,05,23,14.30
2019,08,17,05,24,14.30
2019,08,17,05,25,14.30
2019,08,17,05,26,14.30
2019,08,17,05,27,14.30
2019,08,17,05,28,14.30
2019,08,17,05,29,14.40
2019,08,17,05,30,14.40
2019,08,17,05,31,14.40
2019,08,17,05,32,14.50
2019,08,17,05,33,14.50
2019,08,17,05,34,14.50
2019,08,17,05,35,14.60
2019,08,17,05,36,14.60
2019,08,17,05,37,14.60
2019,08,17,05,38,14.70
2019,08,17,05,39,14.70
2019,08,17,05,40,14.70
2019,08,17,05,41,14.70
2019,08,17,05,42,14.80
2019,08,17,05,43,14.80
2019,08,17,05,44,14.80
2019,08,17,05,45,14.80
2019,08,17,05,46,14.80
2019,08,17,05,47,14.90
2019,08,17,05,48,14.90
2019,08,17,05,49,15.00
2019,08,17,05,50,15.00
2019,08,17,05,51,15.10
2019,08,17,05,52,15.10
2019,08,17,05,53,15.10
2019,08,17,05,54,15.20
2019,08,17,05,55,15.20
2019,08,17,05,56,15.20
2019,08,17,05,57,15.20
2019,08,17,05,58,15.30
2019,08,17,05,59,15.30
2019,08,17,06,00,15.30
2019,08,17,06,01,15.30
2019,08,17,06,02,15.30
2019,08,17,06,03,15.30
2019,08,17,06,04,15.40
2019,08,17,06,05,15.40
2019,08,17,06,06,15.40
2019,08,17,06,07,15.40
2019,08,17,06,08,15.40
2019,08,17,06,09,15.40
2019,08,17,06,10,15.50
2019,08,17,06,11,15.40
2019,08,17,06,12,15.50
2019,08,17,06,13,15.50
2019,08,17,06,14,15.50
2019,08,17,06,15,15.50
2019,08,17,06,16,15.50
2019,08,17,06,17,15.50
2019,08,17,06,18,15.60
2019,08,17,06,19,15.60
2019,08,17,06,20,15.60
2019,08,17,06,21,15.60
2019,08,17,06,22,15.60
2019,08,17,06,23,15.60
2019,08,17,06,24,15.60
2019,08,17,06,25,15.60
2019,08,17,06,26,15.60
2019,08,17,06,27,15.60
2019,08,17,06,28,15.70
2019,08,17,06,29,15.70
2019,08,17,06,30,15.70
2019,08,17,06,31,15.70
2019,08,17,06,32,15.70
2019,08,17,06,33,15.70
2019,08,17,06,34,15.70
2019,08,17,06,35,15.70
2019,08,17,06,36,15.70
2019,08,17,06,37,15.70
2019,08,17,06,38,15.70
2019,08,17,06,39,15.70
2019,08,17,06,40,15.70
2019,08,17,06,41,15.70
2019,08,17,06,42,15.70
2019,08,17,06,43,15.70
2019,08,17,06,44,15.70
2019,08,17,06,45,15.70
2019,08,17,06,46,15.70
2019,08,17,06,47,15.70
2019,08,17,06,48,15.70
2019,08,17,06,49,15.70
2019,08,17,06,50,15.70
2019,08,17,06,51,15.70
2019,08,17,06,52,15.70
2019,08,17,06,53,15.70
2019,08,17,06,54,15.70
2019,08,17,06,55,15.70
2019,08,17,06,56,15.70
2019,08,17,06,57,15.70
2019,08,17,06,58,15.70
2019,08,17,06,59,15.60
2019,08,17,07,00,15.60
2019,08,17,07,01,15.60
2019,08,17,07,02,15.60
2019,08,17,07,03,15.60
2019,08,17,07,04,15.60
2019,08,17,07,05,15.60
2019,08,17,07,06,15.60
2019,08,17,07,07,15.60
2019,08,17,07,08,15.60
2019,08,17,07,09,15.60
2019,08,17,07,10,15.60
2019,08,17,07,11,15.60
2019,08,17,07,12,15.60
2019,08,17,07,13,15.60
2019,08,17,07,14,15.60
2019,08,17,07,15,15.70
2019,08,17,07,16,15.70
2019,08,17,07,17,15.70
2019,08,17,07,18,15.70
2019,08,17,07,19,15.70
2019,08,17,07,20,15.70
2019,08,17,07,21,15.80
2019,08,17,07,22,15.80
2019,08,17,07,23,15.80
2019,08,17,07,24,15.80
2019,08,17,07,25,15.90
2019,08,17,07,26,15.90
2019,08,17,07,27,15.90
2019,08,17,07,28,15.90
2019,08,17,07,29,16.00
2019,08,17,07,30,16.00
2019,08,17,07,31,16.00
2019,08,17,07,32,16.00
2019,08,17,07,33,16.10
2019,08,17,07,34,16.10
2019,08,17,07,35,16.10
2019,08,17,07,36,16.00
2019,08,17,07,37,16.00
2019,08,17,07,38,16.00
2019,08,17,07,39,16.00
2019,08,17,07,40,16.00
2019,08,17,07,41,16.00
2019,08,17,07,42,16.00
2019,08,17,07,43,16.00
2019,08,17,07,44,16.00
2019,08,17,07,45,16.00
2019,08,17,07,46,16.00
2019,08,17,07,47,16.00
2019,08,17,07,48,16.00
2019,08,17,07,49,16.00
2019,08,17,07,50,16.00
2019,08,17,07,51,16.10
2019,08,17,07,52,16.10
2019,08,17,07,53,16.10
2019,08,17,07,54,16.10
2019,08,17,07,55,16.10
2019,08,17,07,56,16.00
2019,08,17,07,57,16.00
2019,08,17,07,58,16.00
2019,08,17,07,59,16.00
2019,08,17,08,00,16.00
2019,08,17,08,01,16.00
2019,08,17,08,02,16.00
2019,08,17,08,03,15.90
2019,08,17,08,04,15.90
2019,08,17,08,05,15.90
2019,08,17,08,06,15.90
2019,08,17,08,07,15.90
2019,08,17,08,08,15.90
2019,08,17,08,09,15.90
2019,08,17,08,10,15.90
2019,08,17,08,11,15.90
2019,08,17,08,12,15.80
2019,08,17,08,13,15.80
2019,08,17,08,14,15.80
2019,08,17,08,15,15.80
2019,08,17,08,16,15.80
2019,08,17,08,17,15.80
2019,08,17,08,18,15.80
2019,08,17,08,19,15.80
2019,08,17,08,20,15.80
2019,08,17,08,21,15.80
2019,08,17,08,22,15.80
2019,08,17,08,23,15.80
2019,08,17,08,24,15.80
2019,08,17,08,25,15.80
2019,08,17,08,26,15.80
2019,08,17,08,27,15.80
2019,08,17,08,28,15.80
2019,08,17,08,29,15.70
2019,08,17,08,30,15.70
2019,08,17,08,31,15.70
2019,08,17,08,32,15.70
2019,08,17,08,33,15.80
2019,08,17,08,34,15.70
2019,08,17,08,35,15.70
2019,08,17,08,36,15.70
2019,08,17,08,37,15.70
2019,08,17,08,38,15.70
2019,08,17,08,39,15.70
2019,08,17,08,40,15.80
2019,08,17,08,41,15.80
2019,08,17,08,42,15.80
2019,08,17,08,43,15.80
2019,08,17,08,44,15.80
2019,08,17,08,45,15.80
2019,08,17,08,46,15.90
2019,08,17,08,47,15.90
2019,08,17,08,48,15.90
2019,08,17,08,49,15.90
2019,08,17,08,50,15.90
2019,08,17,08,51,15.90
2019,08,17,08,52,15.90
2019,08,17,08,53,15.90
2019,08,17,08,54,15.90
2019,08,17,08,55,15.80
2019,08,17,08,56,15.80
2019,08,17,08,57,15.70
2019,08,17,08,58,15.70
2019,08,17,08,59,15.70
2019,08,17,09,00,15.60
2019,08,17,09,01,15.60
2019,08,17,09,02,15.60
2019,08,17,09,03,15.60
2019,08,17,09,04,15.70
2019,08,17,09,05,15.70
2019,08,17,09,06,15.70
2019,08,17,09,07,15.70
2019,08,17,09,08,15.70
2019,08,17,09,09,15.70
2019,08,17,09,10,15.70
2019,08,17,09,11,15.60
2019,08,17,09,12,15.60
2019,08,17,09,13,15.60
2019,08,17,09,14,15.60
2019,08,17,09,15,15.60
2019,08,17,09,16,15.60
2019,08,17,09,17,15.60
2019,08,17,09,18,15.60
2019,08,17,09,19,15.60
2019,08,17,09,20,15.60
2019,08,17,09,21,15.60
2019,08,17,09,22,15.60
2019,08,17,09,23,15.60
2019,08,17,09,24,15.60
2019,08,17,09,25,15.60
2019,08,17,09,26,15.60
2019,08,17,09,27,15.60
2019,08,17,09,28,15.70
2019,08,17,09,29,15.70
2019,08,17,09,30,15.70
2019,08,17,09,31,15.80
2019,08,17,09,32,15.80
2019,08,17,09,33,15.80
2019,08,17,09,34,15.80
2019,08,17,09,35,15.80
2019,08,17,09,36,15.80
2019,08,17,09,37,15.80
2019,08,17,09,38,15.80
2019,08,17,09,39,15.80
2019,08,17,09,40,15.80
2019,08,17,09,41,15.80
2019,08,17,09,42,15.80
2019,08,17,09,43,15.80
2019,08,17,09,44,15.90
2019,08,17,09,45,15.90
2019,08,17,09,46,15.90
2019,08,17,09,47,16.00
2019,08,17,09,48,16.00
2019,08,17,09,49,16.00
2019,08,17,09,50,16.10
2019,08,17,09,51,16.10
2019,08,17,09,52,16.10
2019,08,17,09,53,16.10
2019,08,17,09,54,16.10
2019,08,17,09,55,16.10
2019,08,17,09,56,16.20
2019,08,17,09,57,16.20
2019,08,17,09,58,16.20
2019,08,17,09,59,16.30
2019,08,17,10,00,16.30
2019,08,17,10,01,16.30
2019,08,17,10,02,16.40
2019,08,17,10,03,16.50
2019,08,17,10,04,16.50
2019,08,17,10,05,16.60
2019,08,17,10,06,16.60
2019,08,17,10,07,16.70
2019,08,17,10,08,16.70
2019,08,17,10,09,16.70
2019,08,17,10,10,16.70
2019,08,17,10,11,16.70
2019,08,17,10,12,16.70
2019,08,17,10,13,16.70
2019,08,17,10,14,16.70
2019,08,17,10,15,16.70
2019,08,17,10,16,16.70
2019,08,17,10,17,16.60
2019,08,17,10,18,16.60
2019,08,17,10,19,16.50
2019,08,17,10,20,16.50
2019,08,17,10,21,16.40
2019,08,17,10,22,16.30
2019,08,17,10,23,16.30
2019,08,17,10,24,16.30
2019,08,17,10,25,16.30
2019,08,17,10,26,16.30
2019,08,17,10,27,16.30
2019,08,17,10,28,16.20
2019,08,17,10,29,16.20
2019,08,17,10,30,16.20
2019,08,17,10,31,16.20
2019,08,17,10,32,16.30
2019,08,17,10,33,16.30
2019,08,17,10,34,16.30
2019,08,17,10,35,16.30
2019,08,17,10,36,16.30
2019,08,17,10,37,16.30
2019,08,17,10,38,16.40
2019,08,17,10,39,16.40
2019,08,17,10,40,16.30
2019,08,17,10,41,16.30
2019,08,17,10,42,16.30
2019,08,17,10,43,16.30
2019,08,17,10,44,16.20
2019,08,17,10,45,16.20
2019,08,17,10,46,16.10
2019,08,17,10,47,16.00
2019,08,17,10,48,16.00
2019,08,17,10,49,15.90
2019,08,17,10,50,15.90
2019,08,17,10,51,15.90
2019,08,17,10,52,15.90
2019,08,17,10,53,15.90
2019,08,17,10,54,15.90
2019,08,17,10,55,15.90
2019,08,17,10,56,15.90
2019,08,17,10,57,15.90
2019,08,17,10,58,15.80
2019,08,17,10,59,15.80
2019,08,17,11,00,15.80
2019,08,17,11,01,15.80
2019,08,17,11,02,15.90
2019,08,17,11,03,15.90
2019,08,17,11,04,15.90
2019,08,17,11,05,15.90
2019,08,17,11,06,15.90
2019,08,17,11,07,15.90
2019,08,17,11,08,15.90
2019,08,17,11,09,15.90
2019,08,17,11,10,15.80
2019,08,17,11,11,15.80
2019,08,17,11,12,15.70
2019,08,17,11,13,15.70
2019,08,17,11,14,15.70
2019,08,17,11,15,15.60
2019,08,17,11,16,15.60
2019,08,17,11,17,15.60
2019,08,17,11,18,15.60
2019,08,17,11,19,15.60
2019,08,17,11,20,15.60
2019,08,17,11,21,15.60
2019,08,17,11,22,15.50
2019,08,17,11,23,15.50
2019,08,17,11,24,15.60
2019,08,17,11,25,15.60
2019,08,17,11,26,15.60
2019,08,17,11,27,15.60
2019,08,17,11,28,15.70
2019,08,17,11,29,15.70
2019,08,17,11,30,15.70
2019,08,17,11,31,15.60
2019,08,17,11,32,15.60
2019,08,17,11,33,15.70
2019,08,17,11,34,15.70
2019,08,17,11,35,15.70
2019,08,17,11,36,15.70
2019,08,17,11,37,15.70
2019,08,17,11,38,15.70
2019,08,17,11,39,15.70
2019,08,17,11,40,15.70
2019,08,17,11,41,15.80
2019,08,17,11,42,15.90
2019,08,17,11,43,15.90
2019,08,17,11,44,16.00
2019,08,17,11,45,16.10
2019,08,17,11,46,16.20
2019,08,17,11,47,16.30
2019,08,17,11,48,16.40
2019,08,17,11,49,16.50
2019,08,17,11,50,16.60
2019,08,17,11,51,16.70
2019,08,17,11,52,16.90
2019,08,17,11,53,16.90
2019,08,17,11,54,17.10
2019,08,17,11,55,17.20
2019,08,17,11,56,17.30
2019,08,17,11,57,17.40
2019,08,17,11,58,17.40
2019,08,17,11,59,17.50
2019,08,17,12,00,17.60
2019,08,17,12,01,17.60
2019,08,17,12,02,17.70
2019,08,17,12,03,17.70
2019,08,17,12,04,17.70
2019,08,17,12,05,17.80
2019,08,17,12,06,17.80
2019,08,17,12,07,17.90
2019,08,17,12,08,18.00
2019,08,17,12,09,18.10
2019,08,17,12,10,18.10
2019,08,17,12,11,18.20
2019,08,17,12,12,18.20
2019,08,17,12,13,18.30
2019,08,17,12,14,18.30
2019,08,17,12,15,18.30
2019,08,17,12,16,18.30
2019,08,17,12,17,18.30
2019,08,17,12,18,18.20
2019,08,17,12,19,18.20
2019,08,17,12,20,18.10
2019,08,17,12,21,18.10
2019,08,17,12,22,18.10
2019,08,17,12,23,18.10
2019,08,17,12,24,18.10
2019,08,17,12,25,18.10
2019,08,17,12,26,18.10
2019,08,17,12,27,18.10
2019,08,17,12,28,18.10
2019,08,17,12,29,18.10
2019,08,17,12,30,18.10
2019,08,17,12,31,18.10
2019,08,17,12,32,18.00
2019,08,17,12,33,17.90
2019,08,17,12,34,17.90
2019,08,17,12,35,17.80
2019,08,17,12,36,17.80
2019,08,17,12,37,17.70
2019,08,17,12,38,17.70
2019,08,17,12,39,17.70
2019,08,17,12,40,17.70
2019,08,17,12,41,17.70
2019,08,17,12,42,17.80
2019,08,17,12,43,17.80
2019,08,17,12,44,17.90
2019,08,17,12,45,17.90
2019,08,17,12,46,18.00
2019,08,17,12,47,18.00
2019,08,17,12,48,18.00
2019,08,17,12,49,17.90
2019,08,17,12,50,17.90
2019,08,17,12,51,17.80
2019,08,17,12,52,17.80
2019,08,17,12,53,17.70
2019,08,17,12,54,17.70
2019,08,17,12,55,17.80
2019,08,17,12,56,17.80
2019,08,17,12,57,17.80
2019,08,17,12,58,17.80
2019,08,17,12,59,17.80
2019,08,17,13,00,17.80
2019,08,17,13,01,17.80
2019,08,17,13,02,17.70
2019,08,17,13,03,17.70
2019,08,17,13,04,17.70
2019,08,17,13,05,17.70
2019,08,17,13,06,17.70
2019,08,17,13,07,17.70
2019,08,17,13,08,17.70
2019,08,17,13,09,17.70
2019,08,17,13,10,17.80
2019,08,17,13,11,17.80
2019,08,17,13,12,17.80
2019,08,17,13,13,17.80
2019,08,17,13,14,17.80
2019,08,17,13,15,17.70
2019,08,17,13,16,17.70
2019,08,17,13,17,17.80
2019,08,17,13,18,17.80
2019,08,17,13,19,17.80
2019,08,17,13,20,17.70
2019,08,17,13,21,17.70
2019,08,17,13,22,17.70
2019,08,17,13,23,17.70
2019,08,17,13,24,17.60
2019,08,17,13,25,17.60
2019,08,17,13,26,17.60
2019,08,17,13,27,17.60
2019,08,17,13,28,17.60
2019,08,17,13,29,17.60
2019,08,17,13,30,17.60
2019,08,17,13,31,17.70
2019,08,17,13,32,17.80
2019,08,17,13,33,17.90
2019,08,17,13,34,17.90
2019,08,17,13,35,17.90
2019,08,17,13,36,17.90
2019,08,17,13,37,17.90
2019,08,17,13,38,17.90
2019,08,17,13,39,17.80
2019,08,17,13,40,17.70
2019,08,17,13,41,17.70
2019,08,17,13,42,17.60
2019,08,17,13,43,17.60
2019,08,17,13,44,17.60
2019,08,17,13,45,17.60
2019,08,17,13,46,17.60
2019,08,17,13,47,17.60
2019,08,17,13,48,17.60
2019,08,17,13,49,17.50
2019,08,17,13,50,17.50
2019,08,17,13,51,17.40
2019,08,17,13,52,17.40
2019,08,17,13,53,17.40
2019,08,17,13,54,17.30
2019,08,17,13,55,17.30
2019,08,17,13,56,17.30
2019,08,17,13,57,17.20
2019,08,17,13,58,17.20
2019,08,17,13,59,17.20
2019,08,17,14,00,17.20
2019,08,17,14,01,17.20
2019,08,17,14,02,17.20
2019,08,17,14,03,17.20
2019,08,17,14,04,17.30
2019,08,17,14,05,17.30
2019,08,17,14,06,17.30
2019,08,17,14,07,17.30
2019,08,17,14,08,17.30
2019,08,17,14,09,17.20
2019,08,17,14,10,17.10
2019,08,17,14,11,17.00
2019,08,17,14,12,17.00
2019,08,17,14,13,16.90
2019,08,17,14,14,16.90
2019,08,17,14,15,16.80
2019,08,17,14,16,16.80
2019,08,17,14,17,16.80
2019,08,17,14,18,16.80
2019,08,17,14,19,16.80
2019,08,17,14,20,16.80
2019,08,17,14,21,16.80
2019,08,17,14,22,16.80
2019,08,17,14,23,16.80
2019,08,17,14,24,16.90
2019,08,17,14,25,16.90
2019,08,17,14,26,16.90
2019,08,17,14,27,16.90
2019,08,17,14,28,16.80
2019,08,17,14,29,16.80
2019,08,17,14,30,16.80
2019,08,17,14,31,16.80
2019,08,17,14,32,16.80
2019,08,17,14,33,16.80
2019,08,17,14,34,16.80
2019,08,17,14,35,16.80
2019,08,17,14,36,16.80
2019,08,17,14,37,16.90
2019,08,17,14,38,16.90
2019,08,17,14,39,17.00
2019,08,17,14,40,17.10
2019,08,17,14,41,17.10
2019,08,17,14,42,17.20
2019,08,17,14,43,17.30
2019,08,17,14,44,17.30
2019,08,17,14,45,17.40
2019,08,17,14,46,17.40
2019,08,17,14,47,17.40
2019,08,17,14,48,17.40
2019,08,17,14,49,17.40
2019,08,17,14,50,17.40
2019,08,17,14,51,17.50
2019,08,17,14,52,17.50
2019,08,17,14,53,17.60
2019,08,17,14,54,17.60
2019,08,17,14,55,17.60
2019,08,17,14,56,17.60
2019,08,17,14,57,17.70
2019,08,17,14,58,17.80
2019,08,17,14,59,17.80
2019,08,17,15,00,17.90
2019,08,17,15,01,18.00
2019,08,17,15,02,18.10
2019,08,17,15,03,18.30
2019,08,17,15,04,18.40
2019,08,17,15,05,18.50
2019,08,17,15,06,18.60
2019,08,17,15,07,18.70
2019,08,17,15,08,18.80
2019,08,17,15,09,18.80
2019,08,17,15,10,18.90
2019,08,17,15,11,19.10
2019,08,17,15,12,19.20
2019,08,17,15,13,19.30
2019,08,17,15,14,19.30
2019,08,17,15,15,19.30
2019,08,17,15,16,19.30
2019,08,17,15,17,19.30
2019,08,17,15,18,19.30
2019,08,17,15,19,19.30
2019,08,17,15,20,19.30
2019,08,17,15,21,19.30
2019,08,17,15,22,19.30
2019,08,17,15,23,19.20
2019,08,17,15,24,19.10
2019,08,17,15,25,19.00
2019,08,17,15,26,18.90
2019,08,17,15,27,18.90
2019,08,17,15,28,18.80
2019,08,17,15,29,18.90
2019,08,17,15,30,18.90
2019,08,17,15,31,18.80
2019,08,17,15,32,18.80
2019,08,17,15,33,18.80
2019,08,17,15,34,18.70
2019,08,17,15,35,18.70
2019,08,17,15,36,18.60
2019,08,17,15,37,18.60
2019,08,17,15,38,18.70
2019,08,17,15,39,18.70
2019,08,17,15,40,18.80
2019,08,17,15,41,18.80
2019,08,17,15,42,18.90
2019,08,17,15,43,19.00
2019,08,17,15,44,19.10
2019,08,17,15,45,19.10
2019,08,17,15,46,19.20
2019,08,17,15,47,19.20
2019,08,17,15,48,19.20
2019,08,17,15,49,19.20
2019,08,17,15,50,19.20
2019,08,17,15,51,19.20
2019,08,17,15,52,19.10
2019,08,17,15,53,19.10
2019,08,17,15,54,19.10
2019,08,17,15,55,19.10
2019,08,17,15,56,19.10
2019,08,17,15,57,19.10
2019,08,17,15,58,19.20
2019,08,17,15,59,19.20
2019,08,17,16,00,19.20
2019,08,17,16,01,19.30
2019,08,17,16,02,19.30
2019,08,17,16,03,19.30
2019,08,17,16,04,19.30
2019,08,17,16,05,19.30
2019,08,17,16,06,19.30
2019,08,17,16,07,19.30
2019,08,17,16,08,19.30
2019,08,17,16,09,19.40
2019,08,17,16,10,19.40
2019,08,17,16,11,19.40
2019,08,17,16,12,19.40
2019,08,17,16,13,19.50
2019,08,17,16,14,19.50
2019,08,17,16,15,19.50
2019,08,17,16,16,19.40
2019,08,17,16,17,19.40
2019,08,17,16,18,19.30
2019,08,17,16,19,19.20
2019,08,17,16,20,19.10
2019,08,17,16,21,19.10
2019,08,17,16,22,19.10
2019,08,17,16,23,19.10
2019,08,17,16,24,19.10
2019,08,17,16,25,19.10
2019,08,17,16,26,19.10
2019,08,17,16,27,19.10
2019,08,17,16,28,19.10
2019,08,17,16,29,19.10
2019,08,17,16,30,19.20
2019,08,17,16,31,19.10
2019,08,17,16,32,19.10
2019,08,17,16,33,19.10
2019,08,17,16,34,19.10
2019,08,17,16,35,19.20
2019,08,17,16,36,19.10
2019,08,17,16,37,19.10
2019,08,17,16,38,19.10
2019,08,17,16,39,19.10
2019,08,17,16,40,19.10
2019,08,17,16,41,19.10
2019,08,17,16,42,19.00
2019,08,17,16,43,19.00
2019,08,17,16,44,19.00
2019,08,17,16,45,18.90
2019,08,17,16,46,18.90
2019,08,17,16,47,18.90
2019,08,17,16,48,18.90
2019,08,17,16,49,18.90
2019,08,17,16,50,18.90
2019,08,17,16,51,18.90
2019,08,17,16,52,18.90
2019,08,17,16,53,18.90
2019,08,17,16,54,18.90
2019,08,17,16,55,19.00
2019,08,17,16,56,19.00
2019,08,17,16,57,18.90
2019,08,17,16,58,18.70
2019,08,17,16,59,18.60
2019,08,17,17,00,18.50
2019,08,17,17,01,18.30
2019,08,17,17,02,18.20
2019,08,17,17,03,18.10
2019,08,17,17,04,18.00
2019,08,17,17,05,18.00
2019,08,17,17,06,17.90
2019,08,17,17,07,17.80
2019,08,17,17,08,17.80
2019,08,17,17,09,17.80
2019,08,17,17,10,17.80
2019,08,17,17,11,17.90
2019,08,17,17,12,17.90
2019,08,17,17,13,18.00
2019,08,17,17,14,18.00
2019,08,17,17,15,18.00
2019,08,17,17,16,18.10
2019,08,17,17,17,18.20
2019,08,17,17,18,18.30
2019,08,17,17,19,18.40